QXE2201 KLAS-KSAN

Flight info

Callsign QXE2201
Flight time 0h 42m
Altitude 28000
Route RADYR2 LVELL LUCKI1
Aircraft E75L/M-SDE3GILORVW/S

Departure

Time 2026-05-08 01:29
Airport Harry Reid International Airport (KLAS)

Arrival

Time 2026-05-08 02:12
Airport San Diego International Airport (KSAN)
Time Latitude Longitude Altitude Speed Heading
2026-05-08 01:13 36.08525 -115.14004 2196 ft 0 kts
2026-05-08 01:20 36.08510 -115.14004 2196 ft 2 kts
2026-05-08 01:20 36.08495 -115.14004 2196 ft 2 kts
2026-05-08 01:20 36.08480 -115.14004 2196 ft 2 kts
2026-05-08 01:20 36.08469 -115.14006 2196 ft 1 kts 42°
2026-05-08 01:21 36.08464 -115.14016 2196 ft 0 kts 84°
2026-05-08 01:21 36.08464 -115.14020 2196 ft 0 kts 97°
2026-05-08 01:22 36.08464 -115.14018 2196 ft 0 kts 96°
2026-05-08 01:22 36.08463 -115.14011 2196 ft 1 kts 91°
2026-05-08 01:22 36.08464 -115.13992 2196 ft 3 kts 88°
2026-05-08 01:22 36.08465 -115.13956 2196 ft 5 kts 88°
2026-05-08 01:23 36.08466 -115.13899 2196 ft 7 kts 89°
2026-05-08 01:23 36.08467 -115.13824 2196 ft 9 kts 89°
2026-05-08 01:23 36.08467 -115.13728 2196 ft 12 kts 91°
2026-05-08 01:23 36.08466 -115.13612 2196 ft 14 kts 90°
2026-05-08 01:24 36.08463 -115.13479 2196 ft 16 kts 100°
2026-05-08 01:24 36.08390 -115.13374 2196 ft 16 kts 139°
2026-05-08 01:24 36.08297 -115.13288 2196 ft 17 kts 170°
2026-05-08 01:24 36.08176 -115.13292 2196 ft 17 kts 179°
2026-05-08 01:25 36.08052 -115.13291 2196 ft 18 kts 180°
2026-05-08 01:25 36.07922 -115.13292 2196 ft 19 kts 180°
2026-05-08 01:25 36.07792 -115.13288 2196 ft 17 kts 165°
2026-05-08 01:25 36.07755 -115.13169 2196 ft 16 kts 89°
2026-05-08 01:26 36.07758 -115.13021 2196 ft 17 kts 90°
2026-05-08 01:26 36.07755 -115.12867 2196 ft 18 kts 88°
2026-05-08 01:26 36.07754 -115.12706 2196 ft 18 kts 90°
2026-05-08 01:26 36.07756 -115.12545 2196 ft 18 kts 89°
2026-05-08 01:27 36.07751 -115.12385 2196 ft 18 kts 89°
2026-05-08 01:27 36.07755 -115.12221 2196 ft 19 kts 88°
2026-05-08 01:27 36.07681 -115.12120 2196 ft 18 kts 178°
2026-05-08 01:27 36.07635 -115.12167 2196 ft 9 kts 275°
2026-05-08 01:28 36.07644 -115.12307 2196 ft 38 kts 270°
2026-05-08 01:28 36.07637 -115.12877 2196 ft 93 kts 271°
2026-05-08 01:28 36.07641 -115.13891 2197 ft 139 kts 270°
2026-05-08 01:28 36.07643 -115.15265 2215 ft 172 kts 271°
2026-05-08 01:29 36.07648 -115.16760 2521 ft 182 kts 270°
2026-05-08 01:29 36.07571 -115.18348 2992 ft 185 kts 261°
2026-05-08 01:29 36.07384 -115.19893 3506 ft 189 kts 262°
2026-05-08 01:29 36.07217 -115.21625 3754 ft 213 kts 264°
2026-05-08 01:30 36.07063 -115.23550 4038 ft 236 kts 264°
2026-05-08 01:30 36.06539 -115.25481 4574 ft 244 kts 230°
2026-05-08 01:30 36.05146 -115.26659 5257 ft 247 kts 202°
2026-05-08 01:30 36.03476 -115.27441 5655 ft 265 kts 201°
2026-05-08 01:31 36.01708 -115.28255 6116 ft 278 kts 201°
2026-05-08 01:31 35.99887 -115.29089 6692 ft 286 kts 201°
2026-05-08 01:31 35.97929 -115.29710 7359 ft 290 kts 192°
2026-05-08 01:31 35.95954 -115.30197 8035 ft 292 kts 192°
2026-05-08 01:32 35.93980 -115.30683 8699 ft 294 kts 193°
2026-05-08 01:32 35.91956 -115.31181 9325 ft 297 kts 193°
2026-05-08 01:32 35.89924 -115.31681 9914 ft 301 kts 193°
2026-05-08 01:32 35.87854 -115.32189 10460 ft 307 kts 193°
2026-05-08 01:33 35.85735 -115.32709 10952 ft 314 kts 193°
2026-05-08 01:33 35.83562 -115.33244 11413 ft 323 kts 193°
2026-05-08 01:33 35.81344 -115.33787 11850 ft 332 kts 193°
2026-05-08 01:33 35.79018 -115.34358 12286 ft 341 kts 192°
2026-05-08 01:34 35.76671 -115.34932 12797 ft 348 kts 193°
2026-05-08 01:34 35.74299 -115.35513 13381 ft 350 kts 192°
2026-05-08 01:34 35.71909 -115.36098 13975 ft 352 kts 192°
2026-05-08 01:34 35.69517 -115.36682 14521 ft 355 kts 192°
2026-05-08 01:35 35.67077 -115.37279 15078 ft 358 kts 192°
2026-05-08 01:35 35.64622 -115.37878 15601 ft 362 kts 192°
2026-05-08 01:35 35.62152 -115.38481 16114 ft 366 kts 192°
2026-05-08 01:35 35.59580 -115.38686 16599 ft 369 kts 176°
2026-05-08 01:36 35.57013 -115.38511 17099 ft 373 kts 176°
2026-05-08 01:36 35.54437 -115.38329 17613 ft 376 kts 176°
2026-05-08 01:36 35.51817 -115.38143 18138 ft 378 kts 176°
2026-05-08 01:36 35.49170 -115.37955 18653 ft 380 kts 175°
2026-05-08 01:37 35.46537 -115.37769 19137 ft 383 kts 175°
2026-05-08 01:37 35.43864 -115.37579 19622 ft 386 kts 175°
2026-05-08 01:37 35.41174 -115.37388 20091 ft 389 kts 175°
2026-05-08 01:37 35.38452 -115.37195 20565 ft 392 kts 175°
2026-05-08 01:38 35.35708 -115.37001 21018 ft 395 kts 175°
2026-05-08 01:38 35.32949 -115.36805 21446 ft 399 kts 175°
2026-05-08 01:38 35.30171 -115.36609 21884 ft 402 kts 175°
2026-05-08 01:38 35.27389 -115.36412 22290 ft 405 kts 175°
2026-05-08 01:39 35.24556 -115.36212 22697 ft 408 kts 175°
2026-05-08 01:39 35.21707 -115.36011 23132 ft 411 kts 175°
2026-05-08 01:39 35.18834 -115.35809 23573 ft 413 kts 175°
2026-05-08 01:39 35.15990 -115.35608 24022 ft 415 kts 175°
2026-05-08 01:40 35.13070 -115.35403 24428 ft 418 kts 175°
2026-05-08 01:40 35.10160 -115.35199 24801 ft 421 kts 175°
2026-05-08 01:40 35.07228 -115.34995 25180 ft 423 kts 175°
2026-05-08 01:40 35.04305 -115.34791 25559 ft 426 kts 175°
2026-05-08 01:41 35.01314 -115.34583 25924 ft 428 kts 175°
2026-05-08 01:41 34.98365 -115.34377 26290 ft 431 kts 175°
2026-05-08 01:41 34.95335 -115.34167 26655 ft 433 kts 175°
2026-05-08 01:41 34.92331 -115.33958 27035 ft 435 kts 175°
2026-05-08 01:42 34.89288 -115.33747 27396 ft 437 kts 175°
2026-05-08 01:42 34.86254 -115.33536 27725 ft 439 kts 175°
2026-05-08 01:42 34.83203 -115.33326 27968 ft 435 kts 175°
2026-05-08 01:42 34.80134 -115.33215 27988 ft 446 kts 181°
2026-05-08 01:43 34.77010 -115.33679 27993 ft 457 kts 191°
2026-05-08 01:43 34.73936 -115.34760 27985 ft 467 kts 201°
2026-05-08 01:43 34.70888 -115.36201 27975 ft 474 kts 200°
2026-05-08 01:43 34.67811 -115.37583 27964 ft 475 kts 200°
2026-05-08 01:44 34.64689 -115.38959 27960 ft 474 kts 200°
2026-05-08 01:44 34.61590 -115.40317 27954 ft 474 kts 200°
2026-05-08 01:44 34.58479 -115.41676 27953 ft 473 kts 200°
2026-05-08 01:44 34.55391 -115.43025 27942 ft 473 kts 200°
2026-05-08 01:45 34.52309 -115.44370 27932 ft 474 kts 200°
2026-05-08 01:45 34.49215 -115.45718 27918 ft 473 kts 199°
2026-05-08 01:45 34.46106 -115.47073 27914 ft 472 kts 200°
2026-05-08 01:45 34.43036 -115.48408 27917 ft 473 kts 200°
2026-05-08 01:46 34.39905 -115.49770 27922 ft 473 kts 199°
2026-05-08 01:46 34.36818 -115.51112 27932 ft 474 kts 199°
2026-05-08 01:46 34.33711 -115.52484 27938 ft 473 kts 202°
2026-05-08 01:46 34.30776 -115.54264 27958 ft 474 kts 212°
2026-05-08 01:47 34.27990 -115.56336 27970 ft 472 kts 212°
2026-05-08 01:47 34.25171 -115.58423 27990 ft 472 kts 212°
2026-05-08 01:47 34.22356 -115.60498 27987 ft 475 kts 211°
2026-05-08 01:48 34.16330 -115.63708 27995 ft 474 kts 201°
2026-05-08 01:48 34.13280 -115.65146 27991 ft 473 kts 201°
2026-05-08 01:48 34.10171 -115.66613 27990 ft 472 kts 201°
2026-05-08 01:48 34.07101 -115.68061 27987 ft 473 kts 201°
2026-05-08 01:49 34.04069 -115.69491 27992 ft 474 kts 201°
2026-05-08 01:49 34.00966 -115.70953 27990 ft 473 kts 201°
2026-05-08 01:49 33.94818 -115.73846 28015 ft 472 kts 201°
2026-05-08 01:50 33.88672 -115.76807 28051 ft 473 kts 202°
2026-05-08 01:50 33.82663 -115.79755 28075 ft 459 kts 202°
2026-05-08 01:51 33.76752 -115.82646 28092 ft 459 kts 201°
2026-05-08 01:51 33.73795 -115.84029 27857 ft 461 kts 201°
2026-05-08 01:51 33.70818 -115.85422 27339 ft 457 kts 201°
2026-05-08 01:52 33.67872 -115.86801 26802 ft 453 kts 201°
2026-05-08 01:52 33.64957 -115.88165 26270 ft 447 kts 201°
2026-05-08 01:52 33.62086 -115.89507 25759 ft 443 kts 201°
2026-05-08 01:52 33.59205 -115.90852 25229 ft 441 kts 201°
2026-05-08 01:53 33.56347 -115.92186 24698 ft 439 kts 201°
2026-05-08 01:53 33.53557 -115.93510 24184 ft 435 kts 205°
2026-05-08 01:53 33.51086 -115.95615 23695 ft 430 kts 227°
2026-05-08 01:53 33.49263 -115.98388 23176 ft 425 kts 236°
2026-05-08 01:54 33.47570 -116.01253 22682 ft 422 kts 237°
2026-05-08 01:54 33.45897 -116.04121 22226 ft 420 kts 237°
2026-05-08 01:54 33.44225 -116.06997 21781 ft 416 kts 237°
2026-05-08 01:54 33.42568 -116.09847 21335 ft 414 kts 237°
2026-05-08 01:55 33.40945 -116.12639 20901 ft 410 kts 237°
2026-05-08 01:55 33.39311 -116.15447 20456 ft 406 kts 237°
2026-05-08 01:55 33.37716 -116.18188 20022 ft 404 kts 237°
2026-05-08 01:55 33.36124 -116.20920 19576 ft 400 kts 237°
2026-05-08 01:56 33.34501 -116.23645 19086 ft 399 kts 231°
2026-05-08 01:56 33.32362 -116.25708 18651 ft 396 kts 209°
2026-05-08 01:56 33.29939 -116.27208 18167 ft 395 kts 206°
2026-05-08 01:56 33.27464 -116.28677 17721 ft 392 kts 206°
2026-05-08 01:57 33.25059 -116.30092 17289 ft 388 kts 206°
2026-05-08 01:57 33.22642 -116.31509 16833 ft 385 kts 206°
2026-05-08 01:57 33.20231 -116.32922 16406 ft 382 kts 206°
2026-05-08 01:57 33.17883 -116.34296 15959 ft 376 kts 206°
2026-05-08 01:58 33.15540 -116.35667 15538 ft 366 kts 206°
2026-05-08 01:58 33.13290 -116.36983 15141 ft 362 kts 206°
2026-05-08 01:58 33.11029 -116.38303 14720 ft 361 kts 205°
2026-05-08 01:58 33.08773 -116.39620 14323 ft 360 kts 206°
2026-05-08 01:59 33.06528 -116.40930 13909 ft 358 kts 205°
2026-05-08 01:59 33.04311 -116.42223 13514 ft 356 kts 205°
2026-05-08 01:59 33.02097 -116.43514 13100 ft 354 kts 205°
2026-05-08 01:59 32.99981 -116.45020 12703 ft 351 kts 219°
2026-05-08 02:00 32.98121 -116.46876 12364 ft 349 kts 221°
2026-05-08 02:00 32.96286 -116.48724 11985 ft 346 kts 221°
2026-05-08 02:00 32.94442 -116.50584 11600 ft 344 kts 221°
2026-05-08 02:00 32.92628 -116.52415 11223 ft 340 kts 221°
2026-05-08 02:01 32.90857 -116.54200 10850 ft 334 kts 221°
2026-05-08 02:01 32.89090 -116.55981 10469 ft 326 kts 221°
2026-05-08 02:01 32.87403 -116.57680 10108 ft 317 kts 221°
2026-05-08 02:01 32.85739 -116.59355 9731 ft 309 kts 222°
2026-05-08 02:02 32.84098 -116.61007 9325 ft 304 kts 222°
2026-05-08 02:02 32.82502 -116.62602 8993 ft 300 kts 222°
2026-05-08 02:02 32.80909 -116.64214 8608 ft 299 kts 223°
2026-05-08 02:02 32.79343 -116.65819 8128 ft 299 kts 223°
2026-05-08 02:03 32.77767 -116.67391 7776 ft 292 kts 222°
2026-05-08 02:03 32.76511 -116.69248 7284 ft 285 kts 245°
2026-05-08 02:03 32.75643 -116.71299 6914 ft 279 kts 245°
2026-05-08 02:03 32.74748 -116.73333 6534 ft 273 kts 244°
2026-05-08 02:04 32.73830 -116.75279 6157 ft 268 kts 243°
2026-05-08 02:04 32.72918 -116.77182 5775 ft 263 kts 244°
2026-05-08 02:04 32.72031 -116.79075 5345 ft 259 kts 244°
2026-05-08 02:04 32.71176 -116.80901 4930 ft 251 kts 244°
2026-05-08 02:05 32.70441 -116.82711 4425 ft 246 kts 252°
2026-05-08 02:05 32.69860 -116.84587 3919 ft 238 kts 252°
2026-05-08 02:05 32.69283 -116.86345 3922 ft 223 kts 251°
2026-05-08 02:05 32.68727 -116.88058 3761 ft 219 kts 251°
2026-05-08 02:06 32.68173 -116.89745 3879 ft 222 kts 253°
2026-05-08 02:06 32.67696 -116.91506 3754 ft 225 kts 257°
2026-05-08 02:06 32.67332 -116.93274 3697 ft 211 kts 264°
2026-05-08 02:06 32.67482 -116.94940 3304 ft 206 kts 297°
2026-05-08 02:07 32.67973 -116.96497 3131 ft 196 kts 285°
2026-05-08 02:07 32.68288 -116.98035 2987 ft 188 kts 287°
2026-05-08 02:07 32.68622 -116.99486 2922 ft 181 kts 287°
2026-05-08 02:07 32.68933 -117.00860 2941 ft 163 kts 287°
2026-05-08 02:08 32.69217 -117.02098 2957 ft 152 kts 288°
2026-05-08 02:08 32.69517 -117.03313 2756 ft 152 kts 290°
2026-05-08 02:08 32.69840 -117.04474 2403 ft 147 kts 289°
2026-05-08 02:08 32.70125 -117.05588 2196 ft 137 kts 288°
2026-05-08 02:09 32.70396 -117.06644 2018 ft 132 kts 288°
2026-05-08 02:09 32.70657 -117.07703 1992 ft 133 kts 287°
2026-05-08 02:09 32.70905 -117.08757 2107 ft 134 kts 287°
2026-05-08 02:09 32.71158 -117.09848 2012 ft 137 kts 286°
2026-05-08 02:10 32.71402 -117.10945 1915 ft 136 kts 286°
2026-05-08 02:10 32.71648 -117.12035 1714 ft 139 kts 286°
2026-05-08 02:10 32.71925 -117.13114 1456 ft 135 kts 288°
2026-05-08 02:10 32.72206 -117.14185 1175 ft 136 kts 287°
2026-05-08 02:11 32.72464 -117.15253 783 ft 139 kts 284°
2026-05-08 02:11 32.72723 -117.16328 471 ft 134 kts 285°
2026-05-08 02:11 32.72968 -117.17373 186 ft 130 kts 285°
2026-05-08 02:11 32.73216 -117.18392 20 ft 118 kts 285°
2026-05-08 02:12 32.73342 -117.18936 22 ft 32 kts 285°
2026-05-08 02:12 32.73362 -117.19134 22 ft 15 kts 239°
2026-05-08 02:12 32.73318 -117.19233 22 ft 15 kts 287°
2026-05-08 02:12 32.73349 -117.19360 22 ft 16 kts 285°
2026-05-08 02:13 32.73379 -117.19493 22 ft 17 kts 288°
2026-05-08 02:13 32.73414 -117.19637 20 ft 18 kts 287°
2026-05-08 02:13 32.73452 -117.19788 20 ft 19 kts 285°
2026-05-08 02:13 32.73488 -117.19949 19 ft 20 kts 285°
2026-05-08 02:14 32.73523 -117.20099 19 ft 20 kts 286°
2026-05-08 02:14 32.73566 -117.20288 19 ft 24 kts 284°
2026-05-08 02:14 32.73519 -117.20416 19 ft 17 kts 193°
2026-05-08 02:14 32.73472 -117.20418 19 ft 2 kts 171°
2026-05-08 02:15 32.73468 -117.20418 19 ft 0 kts 171°